{"data":{"norad_id":52859,"epoch":"2026-05-25T02:50:35.348352Z","epoch_age_seconds":74872,"freshness":"FRESH","line1":"1 52859U 22062AF  26145.11846468  .00000291  00000+0  36358-4 0  9997","line2":"2 52859  53.2138  41.0152 0001312  87.5657 272.5485 15.08840070217467","mean_motion":15.0884007,"eccentricity":0.0001312,"inclination_deg":53.2138,"raan_deg":41.0152,"arg_perigee_deg":87.5657,"mean_anomaly_deg":272.5485,"bstar":3.6358e-5,"rev_number":21746,"period_min":95.437550250107,"perigee_km":538.83554912316,"apogee_km":540.65080088108,"semimajor_km":6917.8801750021,"source":"CELESTRAK","updated_at":"2026-05-25T13:38:17.246966Z"}}